This is the latest recevied weather packets stored in our database for station/object KD8OZS. If no packets are shown the sender has not sent any weather packets the latest 10 day(s).
| Time | Temp. | Humidity | Pressure | Rain* | Wind** | Luminosity | Snow |
|---|---|---|---|---|---|---|---|
| 1778005797 | 19.44° C | 68% | 1000.4 hPa | 0 mm | - | 65 W/m² | - |
| 1778005494 | 19.44° C | 69% | 1000.7 hPa | 0 mm | - | 65 W/m² | - |
| 1778005190 | 19.44° C | 67% | 1000.9 hPa | 0 mm | - | 52 W/m² | - |
| 1778004888 | 19.44° C | 67% | 1000.6 hPa | 0 mm | - | 51 W/m² | - |
| 1778004281 | 20° C | 67% | 1000.7 hPa | 0 mm | - | 194 W/m² | - |
| 1778002764 | 19.44° C | 69% | 1000.7 hPa | 0 mm | - | 196 W/m² | - |
| 1778002460 | 19.44° C | 69% | 1001.1 hPa | 0 mm | - | 187 W/m² | - |
| 1778002158 | 19.44° C | 69% | 1001 hPa | 0 mm | - | 174 W/m² | - |
| 1778001856 | 19.44° C | 71% | 1000.9 hPa | 0 mm | - | 216 W/m² | - |
| 1778001555 | 19.44° C | 69% | 1001 hPa | 0 mm | - | 242 W/m² | - |
| 1778001252 | 19.44° C | 69% | 1000.7 hPa | 0 mm | - | 243 W/m² | - |
| 1778000949 | 19.44° C | 68% | 1001 hPa | 0 mm | - | 266 W/m² | - |
| 1778000646 | 18.89° C | 70% | 1001 hPa | 0 mm | - | 272 W/m² | - |
| 1778000341 | 19.44° C | 70% | 1001.3 hPa | 0 mm | - | 131 W/m² | - |
| 1777999732 | 20° C | 68% | 1001.2 hPa | 0 mm | - | 191 W/m² | - |
| 1777999127 | 20° C | 68% | 1001.1 hPa | 0 mm | - | 238 W/m² | - |
| 1777998826 | 20° C | 67% | 1001.1 hPa | 0 mm | - | 268 W/m² | - |
| 1777998524 | 20.56° C | 66% | 1001.2 hPa | 0 mm | - | 274 W/m² | - |
| 1777998220 | 20.56° C | 66% | 1001.1 hPa | 0 mm | - | 307 W/m² | - |
| 1777997917 | 20° C | 67% | 1001.1 hPa | 0 mm | - | 307 W/m² | - |
| 1777997614 | 20.56° C | 65% | 1000.9 hPa | 0 mm | - | 256 W/m² | - |
| 1777997311 | 20.56° C | 65% | 1000.9 hPa | 0 mm | - | 327 W/m² | - |
| 1777997009 | 20.56° C | 65% | 1000.6 hPa | 0 mm | - | 332 W/m² | - |
| 1777996706 | 20.56° C | 64% | 1001.2 hPa | 0 mm | - | 331 W/m² | - |
| 1777996401 | 21.11° C | 63% | 1000.7 hPa | 0 mm | - | 271 W/m² | - |
* Rain latest hour (hover to see other rain measurements)
** Current wind speed in m/s (hover to see current wind gust speed)